[[{"header":{"parameterUnit":"m.s-1","parameterCategory":1,"la1":30.2991,"la2":30.254,"lo1":-89.0895,"lo2":-89.0444,"dy":0.0017,"dx":0.0017,"nx":28,"ny":28,"refTime":"2024-02-05T03:00:00:Z","depth":0,"parameterNumber":2,"parameterNumberName":"U-component_of_WINDS"},"data":[0,0,0,0,0,0,0,0,0,0,0,0,0,0,0,0,0,0,0,0,0,0,0,0,0,0,0,0,0,0,0,0,0,0,0,0,0,0,0,0,0,0,0,0,0,0,0,0,0,0,0,0,0,0,0,0,0,0,3.4502,3.4503,0,3.4599,3.46,3.4601,3.4552,3.455,3.4547,3.4545,3.4646,3.4651,3.4656,0,0,0,0,0,0,0,0,0,0,0,0,0,3.4278,3.4283,3.4502,3.4503,3.4504,3.4599,3.46,3.4601,3.4553,3.455,3.4547,3.4544,3.4645,3.4651,3.4657,0,0,0,0,0,0,0,0,0,0,0,0,0,3.4375,3.4284,3.4502,3.4492,3.4492,3.4598,3.46,3.4602,3.4554,3.455,3.4546,3.4542,3.4643,3.465,3.4658,3.4781,0,0,3.4681,3.4684,0,0,0,0,0,0,0,0,3.437,3.4384,3.4492,3.4492,3.4493,3.456,3.4558,3.4662,3.4555,3.453,3.4545,3.4541,3.4621,3.463,3.4656,3.4785,3.479,3.4681,3.4686,3.4689,3.4691,0,0,0,0,0,0,0,3.4363,3.4379,3.454,3.4493,3.4494,3.4483,3.4493,3.4578,3.4596,3.4532,3.4529,3.4541,3.462,3.4649,3.4658,3.4791,3.4681,3.4688,3.4693,3.4696,3.5028,3.5032,0,0,0,0,0,0,3.4357,3.4374,3.4537,3.4543,3.4421,3.449,3.4501,3.4542,3.4595,3.4599,3.4544,3.4538,3.4638,3.465,3.4662,3.481,3.4689,3.4696,3.4701,3.5023,3.5028,3.5033,0,0,0,0,0,0,3.4352,3.4372,3.4533,3.4458,3.4478,3.4498,3.4545,3.4546,3.4575,3.4604,3.4607,3.457,3.4636,3.4651,3.4752,3.4813,3.47,3.4707,3.5018,3.5025,3.5031,3.5107,0,0,0,0,0,0,3.4346,3.437,3.4416,3.4459,3.4482,3.4621,3.4548,3.4551,3.4588,3.4581,3.4629,3.4633,3.4634,3.4741,3.4759,3.4821,3.4713,3.5013,3.5021,3.5029,3.5099,3.5115,3.5128,0,0,0,0,0,3.4338,3.4434,3.4419,3.4439,3.454,3.4624,3.4637,3.4635,3.4593,3.464,3.4659,3.4632,3.4803,3.4751,3.4772,3.4837,3.5009,3.5019,3.5028,3.5092,3.5112,3.5128,0,0,0,0,0,0,3.4398,3.4439,3.4423,3.4536,3.4577,3.4616,3.4675,3.4656,3.4711,3.4702,3.4698,3.471,3.4814,3.4836,3.4777,3.496,3.49,3.4914,3.4941,3.496,3.4975,3.4967,3.4719,0,0,0,0,0,3.4425,3.4489,3.4522,3.4618,3.464,3.4654,3.4691,3.4686,3.4729,3.4746,3.4772,3.4815,3.4879,3.4921,3.4981,3.5102,3.5112,3.5157,3.5172,3.5184,3.5196,3.5263,3.5283,3.5065,3.5064,3.5064,0,0,3.448,3.451,3.4551,3.4631,3.4662,3.473,3.4669,3.4743,3.4793,3.4757,3.4853,3.4875,3.4923,3.5034,3.5085,3.5056,3.5259,3.5196,3.5206,3.5211,3.5275,3.5295,3.5314,3.5071,3.507,3.5069,0,0,3.4614,3.4644,3.4727,3.476,3.4808,3.4817,3.4838,3.488,3.4893,3.4989,3.4964,3.5025,3.5135,3.517,3.5203,3.5353,3.5331,3.5373,3.5451,3.5516,3.5533,3.5548,3.5602,3.5621,3.5385,3.5386,3.5386,0,3.4676,3.4776,3.4773,3.4849,3.4885,3.4856,3.4941,3.4974,3.504,3.5066,3.5033,3.517,3.5201,3.5321,3.5357,3.5385,3.5408,3.5367,3.553,3.5546,3.556,3.5611,3.5631,3.539,3.539,3.5389,3.5389,0,3.4851,3.4921,3.4983,3.5047,3.509,3.5171,3.5181,3.5226,3.5218,3.5231,3.5331,3.5367,3.5434,3.5462,3.5455,3.5582,3.5562,3.553,3.547,3.5586,3.5634,3.5653,3.5397,3.5396,3.5394,3.5393,0,0,3.5024,3.5086,3.5109,3.5138,3.519,3.5244,3.5325,3.539,3.5429,3.5476,3.5544,3.5638,3.5609,3.5646,3.5643,3.57,3.5818,3.5661,3.5662,3.5689,3.596,3.5983,3.6006,3.5804,3.5808,3.5811,3.5956,0,3.5162,3.5301,3.5301,3.5429,3.5494,3.5469,3.5539,3.5579,3.5595,3.5653,3.567,3.5737,3.5694,3.5716,3.5771,3.5792,3.5872,3.5782,3.5867,3.587,3.5855,3.6031,3.6056,3.6191,3.5975,3.5978,3.598,0,3.534,3.5393,3.5528,3.5572,3.5599,3.5662,3.5722,3.5779,3.5825,3.5832,3.5874,3.5863,3.5946,3.5885,3.5999,3.5938,3.5973,3.5989,3.5994,3.6001,3.5931,3.6042,3.6234,3.6254,3.601,3.6007,3.6005,0,3.5453,3.5558,3.5652,3.5678,3.5731,3.5776,3.5801,3.5843,3.5883,3.5937,3.5963,3.6026,3.606,3.611,3.6117,3.6071,3.6233,3.6171,3.6241,3.6241,3.6275,3.6273,3.6474,3.63,3.6299,3.6299,3.6299,0,3.5606,3.569,3.5703,3.5761,3.5855,3.5855,3.5948,3.5969,3.6007,3.607,3.6053,3.6112,3.6118,3.618,3.6186,3.628,3.6296,3.6305,3.6305,3.6306,3.6305,3.6328,3.6318,3.6304,3.6303,3.6302,3.6301,0,3.5746,3.5759,3.586,3.5903,3.5916,3.5983,3.602,3.6076,3.609,3.617,3.6189,3.6212,3.6283,3.6296,3.638,3.6385,3.6497,3.6489,3.6482,3.648,3.6549,3.6542,3.6772,3.6802,3.6609,3.6611,3.6612,0,3.5843,3.5906,3.5956,3.5996,3.6023,3.6088,3.6129,3.6133,3.6176,3.6235,3.6284,3.6354,3.641,3.6526,3.6551,3.6616,3.6609,3.6685,3.6618,3.6617,3.6609,3.6605,3.6611,3.6697,3.6699,3.6701,3.6702,0,3.6012,3.6016,3.6074,3.6136,3.6185,3.6234,3.628,3.6315,3.6325,3.6375,3.6448,3.6492,3.6578,3.6648,3.6714,3.674,3.6724,3.6723,3.6743,3.6743,3.6736,3.6741,3.6515,3.6718,3.6716,3.6715,3.6714,3.6713,3.6133,3.6188,3.6232,3.6299,3.6334,3.6378,3.6433,3.6455,3.6516,3.6586,3.6585,3.6666,3.6712,3.6798,3.6829,3.6892,3.6868,3.6896,3.6903,3.691,3.6916,3.6727,3.6905,3.6904,3.6904,3.6903,3.6903,0,3.6301,3.6328,3.6389,3.6455,3.6508,3.6488,3.6538,3.6584,3.6655,3.6699,3.6755,3.684,3.6908,3.6939,3.7007,3.7052,3.7046,3.7069,3.7065,3.7072,3.6935,3.6911,3.7073,3.7073,3.7073,3.7073,3.7073,3.7073,3.6394,3.6487,3.6496,3.6608,3.6635,3.6713,3.6743,3.6785,3.682,3.6915,3.6972,3.6991,3.7031,3.7102,3.7164,3.7172,3.7197,3.7224,3.7228,3.7099,3.7081,3.7065,3.7042,3.723,3.723,3.736,3.7361,3.7362]},{"header":{"parameterUnit":"m.s-1","parameterCategory":1,"la1":30.2991,"la2":30.254,"lo1":-89.0895,"lo2":-89.0444,"dy":0.0017,"dx":0.0017,"nx":28,"ny":28,"refTime":"2024-02-05T03:00:00:Z","depth":0,"parameterNumber":3,"parameterNumberName":"V-component_of_WINDS"},"data":[0,0,0,0,0,0,0,0,0,0,0,0,0,0,0,0,0,0,0,0,0,0,0,0,0,0,0,0,0,0,0,0,0,0,0,0,0,0,0,0,0,0,0,0,0,0,0,0,0,0,0,0,0,0,0,0,0,0,1.6284,1.6284,0,1.6375,1.6376,1.6377,1.6322,1.6319,1.6317,1.6314,1.6411,1.6416,1.6421,0,0,0,0,0,0,0,0,0,0,0,0,0,1.6065,1.6069,1.6283,1.6285,1.6286,1.6375,1.6376,1.6377,1.6323,1.6319,1.6316,1.6313,1.6409,1.6415,1.6421,0,0,0,0,0,0,0,0,0,0,0,0,0,1.6158,1.607,1.6283,1.6269,1.6269,1.6374,1.6376,1.6378,1.6323,1.6319,1.6315,1.6312,1.6407,1.6415,1.6422,1.6548,0,0,1.6445,1.6448,0,0,0,0,0,0,0,0,1.6153,1.6166,1.627,1.627,1.627,1.6333,1.6334,1.6435,1.6324,1.6303,1.6314,1.631,1.6388,1.6397,1.6423,1.6552,1.6556,1.6446,1.645,1.6454,1.6456,0,0,0,0,0,0,0,1.6147,1.6162,1.632,1.6272,1.6272,1.6259,1.6268,1.6353,1.6367,1.6304,1.63,1.6312,1.6388,1.6416,1.6425,1.6558,1.6446,1.6452,1.6457,1.646,1.6796,1.68,0,0,0,0,0,0,1.6141,1.6157,1.6317,1.6322,1.6201,1.6266,1.6276,1.6317,1.6366,1.6369,1.6315,1.6309,1.6405,1.6416,1.6428,1.6579,1.6454,1.6461,1.6465,1.6791,1.6797,1.6802,0,0,0,0,0,0,1.6136,1.6156,1.6313,1.6239,1.6258,1.6274,1.632,1.6321,1.6349,1.6374,1.6376,1.6341,1.6402,1.6418,1.6518,1.6582,1.6464,1.6471,1.6786,1.6793,1.6799,1.6882,0,0,0,0,0,0,1.613,1.6154,1.6201,1.624,1.6262,1.6401,1.6324,1.6325,1.6362,1.6355,1.6399,1.6403,1.64,1.6508,1.6526,1.659,1.6477,1.6781,1.6789,1.6797,1.6873,1.689,1.6905,0,0,0,0,0,1.6123,1.6221,1.6204,1.6224,1.6321,1.6405,1.6417,1.6412,1.6367,1.6415,1.6431,1.6401,1.6572,1.6518,1.6539,1.6606,1.6777,1.6787,1.6796,1.6866,1.6887,1.6904,0,0,0,0,0,0,1.619,1.6226,1.6207,1.6321,1.636,1.6395,1.6456,1.6434,1.6487,1.6478,1.647,1.6481,1.6586,1.6606,1.6546,1.6731,1.6667,1.6682,1.6714,1.6733,1.6749,1.6742,1.6483,0,0,0,0,0,1.6218,1.6282,1.6311,1.6409,1.6429,1.6439,1.6476,1.6468,1.6508,1.6525,1.6548,1.6589,1.6652,1.6694,1.6753,1.6876,1.6886,1.6932,1.6948,1.6961,1.6974,1.7041,1.7062,1.6834,1.6834,1.6834,0,0,1.6277,1.6305,1.6346,1.6423,1.6452,1.652,1.6454,1.6528,1.6578,1.6536,1.6633,1.6652,1.6697,1.681,1.6861,1.683,1.7039,1.6973,1.6983,1.6989,1.7053,1.7075,1.7094,1.6841,1.684,1.6838,0,0,1.6419,1.6446,1.6531,1.6562,1.6607,1.6613,1.6633,1.6672,1.6683,1.6779,1.675,1.681,1.6918,1.6952,1.6983,1.7139,1.7114,1.7159,1.7241,1.7307,1.7325,1.7341,1.7397,1.7417,1.7171,1.7172,1.7172,0,1.6487,1.6586,1.6578,1.6654,1.6689,1.6654,1.6741,1.6771,1.6834,1.686,1.6824,1.6959,1.6988,1.7108,1.7146,1.7172,1.7196,1.7154,1.7323,1.7338,1.7353,1.7407,1.7428,1.7177,1.7176,1.7176,1.7175,0,1.6668,1.6737,1.6801,1.6861,1.6904,1.6985,1.699,1.7034,1.7023,1.7034,1.7133,1.7166,1.7231,1.7259,1.7249,1.7379,1.7358,1.7323,1.7259,1.738,1.7431,1.7451,1.7184,1.7182,1.7181,1.7179,0,0,1.6854,1.6909,1.6933,1.696,1.7008,1.7062,1.7142,1.7205,1.7244,1.7289,1.7356,1.7449,1.7417,1.7452,1.7446,1.7504,1.7626,1.7462,1.7463,1.7492,1.7772,1.7799,1.7822,1.761,1.7614,1.7617,1.7768,0,1.6999,1.7138,1.7133,1.7263,1.7328,1.7296,1.7367,1.7404,1.7416,1.7474,1.7487,1.7553,1.7505,1.7527,1.7583,1.76,1.7683,1.7589,1.7674,1.7677,1.7664,1.7848,1.7877,1.8018,1.7788,1.7791,1.7793,0,1.7187,1.7237,1.7374,1.7412,1.7439,1.7502,1.756,1.7616,1.7658,1.7663,1.7703,1.7688,1.7771,1.7705,1.7819,1.7755,1.779,1.7803,1.7809,1.7817,1.7743,1.7862,1.8063,1.8085,1.7824,1.7822,1.782,0,1.731,1.7412,1.7507,1.7531,1.7579,1.7624,1.7646,1.7684,1.7723,1.7774,1.7799,1.786,1.7893,1.7941,1.7943,1.7894,1.8059,1.7992,1.8066,1.8066,1.8102,1.81,1.8312,1.8124,1.8123,1.8123,1.8123,0,1.7472,1.7557,1.7563,1.7621,1.7716,1.771,1.7805,1.7822,1.7857,1.7919,1.7895,1.7955,1.7953,1.8014,1.8016,1.8111,1.8126,1.8133,1.8133,1.8136,1.8135,1.8158,1.8149,1.8129,1.8127,1.8126,1.8125,0,1.7626,1.7633,1.7734,1.7771,1.7782,1.7851,1.7882,1.7939,1.7949,1.8028,1.8046,1.8063,1.8133,1.8139,1.8221,1.8223,1.8337,1.8326,1.8323,1.8321,1.8394,1.8388,1.863,1.8661,1.8452,1.8454,1.8456,0,1.7729,1.7793,1.7837,1.7877,1.7901,1.7966,1.8005,1.8002,1.8044,1.8098,1.8148,1.8216,1.827,1.8384,1.8403,1.8466,1.8456,1.8537,1.8466,1.8467,1.8458,1.8455,1.8462,1.8551,1.8553,1.8555,1.8557,0,1.7912,1.7912,1.7969,1.8029,1.8076,1.8123,1.8166,1.82,1.8203,1.8252,1.8323,1.8365,1.8448,1.8516,1.8578,1.8601,1.858,1.8579,1.8599,1.8603,1.8599,1.8603,1.8361,1.8573,1.8572,1.857,1.8569,1.8569,1.8044,1.81,1.814,1.8205,1.8237,1.8278,1.8333,1.835,1.8409,1.8477,1.8472,1.8551,1.8592,1.8673,1.8701,1.8763,1.8737,1.8766,1.8774,1.8781,1.8789,1.8588,1.8775,1.8774,1.8774,1.8773,1.8773,0,1.8226,1.825,1.831,1.8371,1.8423,1.8398,1.8445,1.849,1.8559,1.86,1.8653,1.8736,1.8802,1.8827,1.8892,1.8937,1.8929,1.8954,1.8951,1.8957,1.8809,1.8785,1.8959,1.8959,1.8959,1.8959,1.8959,1.8959,1.8327,1.8421,1.8426,1.8537,1.8561,1.8637,1.8667,1.8705,1.8737,1.883,1.8885,1.89,1.8935,1.9002,1.9062,1.9068,1.9093,1.9123,1.9125,1.8986,1.8967,1.8949,1.8927,1.9128,1.9128,1.9268,1.9269,1.927]}]]